Location: ?????
(31.8092°N, 35.2590°E)
Time: 03:58:21
(UTC+00:00)

Cosmos 2360 Rocket - Pass Details

Date: 21 October 2021
Orbit: 832 x 846 km, 71.0° (Epoch: 07 December)

Event Time Altitude Azimuth Distance (km) Brightness Sun altitude
Rises 15:32:53 0° 162° (SSE) 3,366 5.2 -7.7°
Reaches altitude 10° 15:35:54 10° 146° (SSE) 2,438 4.4 -8.3°
Maximum altitude 15:39:54 20° 100° (E) 1,824 3.4 -9.2°
Drops below altitude 10° 15:43:55 10° 54° (NE) 2,455 4.1 -10.0°
Enters shadow 15:44:54 - 48° (NE) 2,736 4.4 -10.2°
